Regional Weather Roundup
Issued by NWS

Current Version | Previous Version | Text Only | Print | Product List | Glossary On
Versions: 1 2 3 4 5 6 7 8 9 10 11 12 13 14 15 16 17 18 19 20 21 22 23 24 25 26 27 28
000
ASUS45 KBOU 301010
RWRCO

WEATHER ROUNDUP FOR COLORADO
NATIONAL WEATHER SERVICE DENVER/BOULDER CO
400 AM MDT FRI SEP 30 2016

NOTE: "FAIR" INDICATES FEW OR NO CLOUDS BELOW 12000 FEET WITH NO
SIGNIFICANT WEATHER AND/OR OBSTRUCTIONS TO VISIBILITY.

COZ001>005-013-030-031-301100-
...NORTHWEST COLORADO...

CITY           SKY/WX    TMP DP  RH WIND       PRES   REMARKS
CRAIG          CLOUDY    54  51  90 E3        30.35F
HAYDEN         MOCLDY    52  46  82 E6        30.36F
MEEKER         CLOUDY    54  51  90 CALM      30.36F
MOUNT WERNER   NOT AVBL
STEAMBOAT SPGS CLOUDY    50  48  93 CALM      30.37F
WALDEN           N/A     50  39  66 S3        30.42F
$$

COZ006>008-011-301100-
...WEST CENTRAL VALLEYS...

CITY           SKY/WX    TMP DP  RH WIND       PRES   REMARKS
GRAND JUNCTION LGT RAIN  57  56  96 NE6       30.30F
MONTROSE       CLOUDY    54  51  90 S3        30.36F
EAGLE          CLOUDY    52  46  82 E6        30.39S
RIFLE          LGT RAIN  57  56  96 CALM      30.34F
DELTA          FAIR      58  56  94 E3        30.34S
NUCLA          CLOUDY    54  52  94 CALM      30.40F
$$

COZ017>023-064>068-301100-
...SOUTHWEST COLORADO...

CITY           SKY/WX    TMP DP  RH WIND       PRES   REMARKS
DURANGO        CLOUDY    52  49  89 NE5       30.38F
CORTEZ         FAIR      49  48  97 CALM      30.35F
PAGOSA SPRINGS CLOUDY    51  48  89 CALM      30.44F
TELLURIDE      CLOUDY    48  44  88 CALM      30.50F
WOLF CREEK PAS CLOUDY    34  34 100 MISG      30.64F FOG
$$

COZ009-010-012-014-032>034-037-058>063-301100-
...CENTRAL COLORADO...

CITY           SKY/WX    TMP DP  RH WIND       PRES   REMARKS
ASPEN          CLOUDY    50  45  83 CALM      30.41F
BUENA VISTA    CLOUDY    51  35  52 CALM      30.40F
COPPER MTN     CLOUDY    45  32  61 NW3       30.60F
BERTHOUD PASS  CLOUDY    36  23  60 NW14G21   30.63F
COTTONWOOD PAS CLOUDY    52  34  50 CALM      30.49F
GUNNISON       MOCLDY    48  43  81 N7        30.42F
KREMMLING      RAIN      46  37  71 CALM      30.41S
LEADVILLE      CLOUDY    42  32  67 NE5       30.48F
MONARCH PASS   CLOUDY    37  34  87 SW15      30.71F
SALIDA         CLOUDY    58  37  45 W8        30.45F
SUNLIGHT       DRZL/FOG  43  43 100 SW7       30.58F VSB 1
WILKERSON PASS FAIR      43  32  65 SW12G17   30.59F
$$

COZ069>075-301100-
...SAN LUIS VALLEY/SANGRE DE CRISTO MOUNTAINS...

CITY           SKY/WX    TMP DP  RH WIND       PRES   REMARKS
ALAMOSA        FAIR      48  40  73 SE9       30.39F
LA VETA PASS   FAIR      45  34  65 MISG      30.50F
SAGUACHE       CLOUDY    50  37  62 SE6       30.43S
$$

COZ035-036-038>040-301100-
...NORTHERN COLORADO FRONT RANGE...

CITY           SKY/WX    TMP DP  RH WIND       PRES   REMARKS
DENVER INTL AP MOCLDY    58  39  49 W8        30.21F
DMNS CITY PARK   N/A     57  41  54 S1G8      30.23S
AURORA         MOCLDY    56  40  53 SW5       30.23F
FRONT RANGE AP NOT AVBL
ERIE MUNI ARPT FAIR      54  40  59 CALM      30.21F
BOULDER MUN AP NOT AVBL
CENTENNIAL     FAIR      59  38  45 CALM      30.24F
BROOMFIELD     FAIR      59  37  44 CALM      30.24S
FORT COLLINS   FAIR      54  43  66 N6        30.21S
LONGMONT       FAIR      55  43  63 CALM      30.22S
$$

COZ041-046-047-076>085-087-088-301100-
...PIKES PEAK/PALMER DIVIDE AND SOUTHERN FOOTHILLS...

CITY           SKY/WX    TMP DP  RH WIND       PRES   REMARKS
COLO. SPRINGS  CLOUDY    54  39  57 N7        30.27F
A. F. ACADEMY  CLOUDY    51  36  57 NE2       30.27F
SCHRIEVER AFB  NOT AVBL
ELLICOTT       NOT AVBL
FALCON         CLOUDY    51  39  63 N3        30.30F
FORT CARSON    FAIR      51  38  60 NW5       30.24F
LIMON          FAIR      37  35  92 CALM      30.24F
MONUMENT HILL  CLOUDY    54  32  43 W10       30.32S
TRINIDAD       CLOUDY    61  35  37 NW3       30.24F
$$

COZ042>045-048>051-090-091-301100-
...NORTHEAST COLORADO...

CITY           SKY/WX    TMP DP  RH WIND       PRES   REMARKS
GREELEY ARPT   FAIR      52  41  66 NE7       30.20R
AKRON          FAIR      49  40  71 S10       30.21S
BURLINGTON     FAIR      48  38  68 SE12      30.22F
WRAY           FAIR      43  37  81 E5        30.23F
STERLING       FAIR      50  41  71 E7        30.19F
HOLYOKE        NOT AVBL
FORT MORGAN    FAIR      46  39  76 NE7       30.19S
$$

COZ086-089-092>099-301100-
...SOUTHEAST COLORADO...

CITY           SKY/WX    TMP DP  RH WIND       PRES   REMARKS
PUEBLO         FAIR      55  41  59 N6        30.20S
LA JUNTA       FAIR      52  44  74 E8        30.16F
LAMAR          FAIR      47  40  76 E8        30.16F
SPRINGFIELD      N/A     50  45  83 S13       30.21F
$$




USA.gov is the U.S. government's official web portal to all federal, state and local government web resources and services.